Miscellaneous Local Product
Issued by NWS North Platte, NE

Home | Current Version | Previous Version | Text Only | Print | Product List | Glossary On
Versions: 1 2 3 4 5 6 7 8 9 10 11 12 13 14 15 16 17 18 19 20 21 22 23 24 25 26 27 28 29 30 31 32 33 34 35 36 37 38 39 40 41 42 43 44 45 46 47 48 49 50
554
AXUS43 KLBF 221210
MISLBF


WESTERN AND NORTH CENTRAL NEBRASKA HOURLY WEATHER ROUNDUP
NATIONAL WEATHER SERVICE NORTH PLATTE NE
700 AM CDT SAT JUL 22 2017

NOTE: "FAIR" INDICATES FEW OR NO CLOUDS BELOW 12,000 FEET WITH NO
SIGNIFICANT WEATHER AND/OR OBSTRUCTIONS TO VISIBILITY.

NOTE: STATIONS NOT REPORTING VARIABLES SUCH AS SKY/WEATHER OR
PRESSURE ARE PROVIDED BY RAWS AND APRS NETWORKS AND ARE NOT UNDER
NATIONAL WEATHER SERVICE QUALITY CONTROL.

...OBSERVATIONS IN AND NEAR THE EASTERN PANHANDLE OF NEBRASKA...

CITY           SKY/WX    TMP DP  RH WIND       PRES   REMARKS
PINE RIDGE     CLEAR     61  59  93 CALM      30.03F
GORDON         FAIR      62  58  86 CALM      30.04S
CHADRON        PTCLDY    60  53  77 N3        30.02S
ALLIANCE       PTCLDY    62  56  80 CALM      30.04R
SIDNEY         MOCLDY    65  55  70 W7        30.08F
CRESCENT LAKE    N/A     68  55  63 N9          N/A
$$

...OBSERVATIONS IN NORTHERN NEBRASKA AND FAR SOUTHERN SOUTH DAKOTA...

CITY           SKY/WX    TMP DP  RH WIND       PRES   REMARKS
WINNER         FAIR      70  66  87 SW5       29.90R
VALENTINE      CLOUDY    67  56  67 W9        29.96R
THEDFORD       CLOUDY    73  60  65 W5        29.99R
AINSWORTH      PTCLDY    65  61  89 NW3       29.94S
O`NEILL        CLOUDY    74  74 100 E3        29.90S FOG
ORD            CLEAR     72  66  81 N13       29.88R
BROKEN BOW     CLEAR     70  63  78 CALM      29.93R
VALENTINE NWR    N/A     64  58  81 NW6         N/A
HALSEY           N/A     72  60  64 CALM        N/A
BUTTE            N/A     67  64  90 SW3         N/A
CHAMBERS         N/A     74  72  94 CALM        N/A
EWING            N/A     74  73  96 CALM        N/A
$$

...OBSERVATIONS IN SOUTHWEST NEBRASKA AND FAR NORTHEAST COLORADO...

CITY           SKY/WX    TMP DP  RH WIND       PRES   REMARKS
HOLYOKE        FAIR      72  61  68 NW5       30.05R
IMPERIAL       MOCLDY    70  57  63 NW7       29.98R
OGALLALA       CLOUDY    72  60  65 N5        29.99R
NORTH PLATTE   CLEAR     67  57  70 NW6       29.96R
MCCOOK         PTCLDY    76  56  49 N7        29.91R
LEXINGTON      PTCLDY    72  64  75 N7        29.91F
STAPLETON        N/A     71  57  61 CALM        N/A
GOTHENBURG       N/A     77  53  42 NW8         N/A
CALLAWAY         N/A     74  64  69 NW8         N/A
$$

...OBSERVATIONS IN CENTRAL LINCOLN COUNTY AREA...

CITY           SKY/WX    TMP DP  RH WIND       PRES   REMARKS
N.P. AIRPORT   CLEAR     67  57  70 NW6       29.96R
N.P. DOWNTOWN    N/A     75  57  54 CALM        N/A
N.P. SOUTHEAST   N/A     75  56  51 CALM        N/A
N.P. HILLCREST   N/A     73  55  53 NW6         N/A
$$

...SOME OBSERVATIONS FROM AROUND THE REGION...

CITY           SKY/WX    TMP DP  RH WIND       PRES   REMARKS
DENVER         CLOUDY    62  58  86 W8        30.14R
LIMON          CLEAR     60  59  96 SW3       30.17R
ASPEN          CLOUDY    53  50  89 S3        30.36R
LARAMIE        CLOUDY    50  47  89 S7        30.30R
CASPER         CLOUDY    58  49  72 W9        30.17R
CHEYENNE       CLOUDY    59  50  72 NW9       30.19S
SCOTTSBLUFF    CLEAR     63  56  78 NW5       30.04F
GRAND ISLAND   CLOUDY    71  69  93 NW6       29.88R
OMAHA          CLOUDY    79  75  87 NE9       29.79R
SIOUX FALLS    PTCLDY    69  68  96 NW7       29.86R
PIERRE         CLEAR     69  66  90 NW12      29.88S
RAPID CITY     LGT RAIN  62  50  64 NW9       30.05R
BISMARCK       CLEAR     63  61  93 NW8       29.93R
KANSAS CITY    PTCLDY    81  72  74 SW13      29.82F
HILL CITY      CLEAR     70  58  65 W5        29.89S
WICHITA        PTCLDY    79  69  71 SW8       29.88R
DODGE CITY     CLEAR     66  58  75 NW5       29.94S
OKLAHOMA CITY  PTCLDY    75  68  78 S7        29.92F
DALLAS         PTCLDY    81  73  76 S8        29.92S
AMARILLO       PTCLDY    70  60  70 CALM      30.04R
$$




USA.gov is the U.S. government's official web portal to all federal, state and local government web resources and services.